Weather History for Bolton Field, OH

Change the Weather History Date:

Friday, December 21, 2012

  Actual Average Record
Temperature  
Mean Temperature 30 °F -  
Max Temperature 32 °F 35 °F 64 °F (2013)
Min Temperature 28 °F 23 °F 1 °F (2008)
Degree Days  
Heating Degree Days 34    
Moisture  
Dew Point 27 °F    
Average Humidity 84    
Maximum Humidity 93    
Minimum Humidity 76    
Precipitation  
Precipitation 0.01 in - - ()
Sea Level Pressure  
Sea Level Pressure 29.60 in    
Wind  
Wind Speed 24 mph (WSW)    
Max Wind Speed 29 mph    
Max Gust Speed 41 mph    
Visibility 7 miles    
Events Snow    
Averages and records for this station are not official NWS values.
T = Trace of Precipitation, MM = Missing Value Source: NWS Daily Summary

Daily Weather History Graph

Daily Weather History Graph

Search for Another Location

Airport:

Trip Planner

Search our weather history database for the weather conditions in past years. The results will help you decide how hot, cold, wet, or windy it might be!

Date:

Astronomy

Dec. 21, 2012 Rise Set
Actual Time 7:50 AM EST 5:11 PM EST
Civil Twilight 7:20 AM EST 5:41 PM EST
Nautical Twilight 6:46 AM EST 6:15 PM EST
Astronomical Twilight 6:13 AM EST 6:48 PM EST
Moon 12:57 PM EST (12/21) 1:36 AM EST (12/21)
Length of Visible Light 10h 21m
Length of Day
9h 20m
Waxing Gibbous, 64% of the Moon is Illuminated
Dec 21
Waxing Gibbous
Dec 28
Full
Jan 4
Last Quarter
Jan 11
New
Jan 18
First Quarter

Hourly Weather History & Observations

Time (EST) Temp. Windchill Dew Point Humidity Pressure Visibility Wind Dir Wind Speed Gust Speed Precip Events Conditions
12:15 AM 33.4 °F 19.8 °F 26.6 °F 76% 29.44 in 10.0 mi SSW 28.8 mph 34.5 mph N/A   Overcast
12:35 AM 32.9 °F 19.6 °F 26.8 °F 78% 29.43 in 10.0 mi SSW 26.5 mph 38.0 mph N/A   Overcast
12:55 AM 32.5 °F 18.6 °F 26.1 °F 77% 29.43 in 10.0 mi SSW 28.8 mph 39.1 mph N/A   Overcast
1:15 AM 32.4 °F 18.6 °F 25.9 °F 77% 29.43 in 10.0 mi SW 27.6 mph 38.0 mph N/A   Overcast
1:35 AM 32.2 °F 18.6 °F 26.4 °F 79% 29.44 in 10.0 mi SSW 26.5 mph 35.7 mph N/A   Overcast
1:55 AM 32.0 °F 18.1 °F 26.2 °F 79% 29.43 in 10.0 mi SW 27.6 mph 38.0 mph N/A   Overcast
2:15 AM 32.0 °F 19.2 °F 26.1 °F 79% 29.44 in 10.0 mi SW 23.0 mph 38.0 mph N/A   Overcast
2:35 AM 32.0 °F 18.4 °F 26.2 °F 79% 29.44 in 10.0 mi SW 26.5 mph 36.8 mph N/A   Overcast
2:55 AM 32.0 °F 18.4 °F 26.2 °F 79% 29.45 in 10.0 mi SW 26.5 mph 40.3 mph N/A Snow Light Snow
3:15 AM 32.0 °F 18.6 °F 26.1 °F 79% 29.45 in 10.0 mi SW 25.3 mph 36.8 mph N/A Snow Light Snow
3:35 AM 32.0 °F 18.9 °F 25.7 °F 78% 29.45 in 10.0 mi SW 24.2 mph 39.1 mph N/A   Overcast
3:55 AM 31.6 °F 18.1 °F 26.2 °F 80% 29.45 in 10.0 mi SW 25.3 mph 35.7 mph N/A   Overcast
4:15 AM 31.5 °F 17.6 °F 25.9 °F 80% 29.44 in 10.0 mi SW 26.5 mph 41.4 mph N/A   Overcast
4:35 AM 31.1 °F 18.3 °F 26.1 °F 82% 29.44 in 10.0 mi SW 21.9 mph 34.5 mph N/A Snow Light Snow
4:55 AM 30.7 °F 16.7 °F 25.3 °F 80% 29.44 in 7.0 mi SW 26.5 mph 38.0 mph N/A Snow Light Snow
5:15 AM 30.4 °F 15.7 °F 25.5 °F 82% 29.44 in 4.0 mi SW 28.8 mph 41.4 mph N/A Snow Light Snow
5:35 AM 30.2 °F 16.2 °F 25.7 °F 83% 29.44 in 5.0 mi SW 25.3 mph 33.4 mph N/A Snow Light Snow
5:55 AM 30.2 °F 16.8 °F 25.2 °F 82% 29.44 in 10.0 mi SW 23.0 mph 36.8 mph N/A Snow Light Snow
6:15 AM 30.0 °F 15.7 °F 24.8 °F 81% 29.44 in 3.0 mi SW 26.5 mph 36.8 mph N/A Snow Light Snow
6:35 AM 29.5 °F 14.5 °F 25.5 °F 85% 29.45 in 2.0 mi WSW 28.8 mph 35.7 mph 0.01 in Snow Light Snow
6:55 AM 29.1 °F 14.8 °F 25.7 °F 87% 29.45 in 1.8 mi WSW 25.3 mph 34.5 mph 0.01 in Snow Light Snow
7:15 AM 28.9 °F 15.1 °F 26.1 °F 89% 29.46 in 2.0 mi WSW 23.0 mph 33.4 mph N/A Snow Light Snow
7:25 AM 28.4 °F 14.4 °F 24.8 °F 86% 29.46 in 4.0 mi WSW 23.0 mph 31.1 mph N/A Snow Light Snow
7:50 AM 28.4 °F 13.8 °F 26.6 °F 93% 29.47 in 5.0 mi WSW 25.3 mph 36.8 mph N/A Snow Light Snow
8:50 AM 28.4 °F 14.1 °F 26.6 °F 93% 29.49 in 3.0 mi WSW 24.2 mph 32.2 mph N/A Snow Light Snow
9:55 AM 30.2 °F 17.1 °F 26.6 °F 86% 29.53 in 3.0 mi West 21.9 mph 31.1 mph N/A Snow Light Snow
10:55 AM 30.2 °F 17.4 °F 28.4 °F 93% 29.56 in 2.0 mi West 20.7 mph 31.1 mph N/A Snow Snow
11:55 AM 30.2 °F 17.8 °F 26.6 °F 86% 29.58 in 2.0 mi West 19.6 mph 28.8 mph N/A Snow Light Snow
12:55 PM 32.0 °F 19.8 °F 26.6 °F 80% 29.58 in 3.0 mi West 20.7 mph 33.4 mph N/A Snow Light Snow
1:45 PM 32.0 °F 19.5 °F 26.6 °F 80% 29.60 in 2.5 mi West 21.9 mph 31.1 mph N/A Snow Light Snow
2:47 PM 30.2 °F 17.1 °F 28.4 °F 93% 29.62 in 1.0 mi West 21.9 mph 32.2 mph N/A Snow Snow
3:50 PM 30.2 °F 17.4 °F 26.6 °F 86% 29.67 in 2.0 mi West 20.7 mph 32.2 mph N/A Snow Light Snow
4:50 PM 30.2 °F 18.5 °F 26.6 °F 86% 29.71 in 1.0 mi West 17.3 mph 28.8 mph N/A Snow Light Snow
5:50 PM 30.2 °F 18.5 °F 28.4 °F 93% 29.75 in 2.0 mi West 17.3 mph 24.2 mph N/A Snow Light Snow
6:50 PM 30.2 °F 19.3 °F 28.4 °F 93% 29.79 in 2.5 mi West 15.0 mph 25.3 mph N/A Snow Light Snow
8:15 PM 30.7 °F 19.6 °F 28.0 °F 90% 29.82 in 5.0 mi West 16.1 mph 28.8 mph N/A Snow Light Snow
8:35 PM 30.9 °F 20.2 °F 28.0 °F 89% 29.84 in 7.0 mi West 15.0 mph 27.6 mph N/A Snow Light Snow
8:55 PM 31.5 °F 20.5 °F 27.7 °F 86% 29.85 in 10.0 mi West 16.1 mph 27.6 mph N/A   Overcast
9:15 PM 31.6 °F 20.7 °F 27.5 °F 85% 29.85 in 10.0 mi West 16.1 mph 23.0 mph N/A   Overcast
9:35 PM 32.0 °F 20.8 °F 27.5 °F 83% 29.86 in 10.0 mi West 17.3 mph 29.9 mph N/A   Overcast
9:55 PM 32.0 °F 20.8 °F 27.3 °F 83% 29.87 in 10.0 mi West 17.3 mph 31.1 mph N/A   Overcast
10:15 PM 32.0 °F 20.8 °F 27.1 °F 82% 29.88 in 10.0 mi West 17.3 mph 25.3 mph N/A   Overcast
10:35 PM 32.0 °F 21.2 °F 27.0 °F 82% 29.89 in 10.0 mi WNW 16.1 mph 26.5 mph N/A   Overcast
10:55 PM 31.8 °F 20.2 °F 26.6 °F 81% 29.89 in 10.0 mi West 18.4 mph 26.5 mph N/A   Overcast
11:15 PM 31.6 °F 21.2 °F 26.6 °F 82% 29.91 in 10.0 mi West 15.0 mph 23.0 mph N/A   Overcast
11:35 PM 31.6 °F 19.7 °F 26.6 °F 82% 29.91 in 10.0 mi West 19.6 mph 31.1 mph N/A   Overcast
11:55 PM 31.5 °F 19.4 °F 26.4 °F 82% 29.92 in 10.0 mi West 19.6 mph 27.6 mph N/A   Overcast